User: anonymous   Login
Location: *
(51.8167°N, 12.5000°E)
Time: 09:33:52
(UTC+00:00)
Language:

ATLAS CENTAUR R/B - Orbit

View from above orbital plane
View from above orbital plane
View from above satellite
View from above satellite

Ground track
Ground track

The orbit data is extracted from the following two-line orbital elements,

1 38770U 12048N   19304.70068257 0.00000804  00000-0  50735-4 0    01
2 38770  64.6430 166.2408 0170053 213.7031 146.2969 14.97561206    08
Epoch (UTC): 31 October 2019 16:48:58
Eccentricity: 0.0170053
inclination: 64.6430°
perigee height: 456 km
apogee height: 692 km
right ascension of ascending node: 166.2408°
argument of perigee: 213.7031°
revolutions per day: 14.97561206
mean anomaly at epoch: 146.2969°
orbit number at epoch: 0

The dashed part of the orbit path shows where the satellite is in the earth's shadow,  

DLR